Location: Unspecified
(0.0000°N, 0.0000°E)
Time: 07:07:31
(UTC+00:00)

LES 2 - Pass Details

Date: 16 October 2025
Orbit: 2783 x 14792 km, 32.1° (Epoch: 30 October)

Event Time Altitude Azimuth Distance (km) Brightness Sun altitude
Rises 04:28:10 0° 231° (SW) 7,994 ? -19.1°
Reaches altitude 10° 04:33:06 10° 222° (SW) 7,636 ? -17.9°
Maximum altitude 05:08:20 43° 146° (SE) 10,201 ? -9.2°
Drops below altitude 10° 07:18:05 10° 70° (ENE) 18,344 ? 22.8°
Sets 07:40:52 0° 65° (ENE) 18,036 ? 28.4°
